sat.trackr.live / text

‹ back to catalog

STARLINK-34203

NORAD 64246 · 2025-119P

PAYLOAD ACTIVE UNKNOWN

§ Identity

Operator
Country
US
Launch date
2025-06-03
Launch site
AFETR
Launch vehicle
Mass (kg)
RCS (m²)

Purposes: comms

External: N2YO · Heavens-Above · Gunter

§ Orbital elements

Epoch: 2026-05-24T22:50:20.592672Z

Period
94.27 min
Inclination
43.0023°
Eccentricity
0.0000997
Mean motion
15.27583509 rev/d
Perigee alt
482.4 km
Apogee alt
483.7 km
Semi-major
6,861.2 km
B*
6.1662e-4
RAAN
236.2744°
Arg perigee
288.3015°
Mean anomaly
71.7728°
Rev number
5,584

§ Raw data

STARLINK-342031 64246U 25119P   26144.95162723  .00016746  00000+0  61662-3 0  99992 64246  43.0023 236.2744 0000997 288.3015  71.7728 15.27583509 55845

JSON: /api/v1/satellites/64246 · /tle

For live sub-satellite position, see the globe view (requires WebGL).

§ Visibility from observer

Set your observer location to see the next 7 days of passes ≥ 10°. The values pass through the URL so the page stays shareable.

No JS? Fill the form by hand. The geolocation button needs JavaScript.